| time (UTC) | temp F | wind direction | speed MPH | gust MPH | rain 1hr in | rain 24hr in | rain mn in | humidity % | barometer mb |
| 20260902134016 | 76 | 202 | 6.0 | 11.0 | 0.00 | 0.00 | 0.00 | 76 | 1018.3 |
| 20260902133016 | 75 | 202 | 4.0 | 7.0 | 0.00 | 0.00 | 0.00 | 76 | 1018.1 |
| 20260902132016 | 74 | 202 | 5.0 | 7.0 | 0.00 | 0.00 | 0.00 | 76 | 1018.0 |
| 20260902130016 | 72 | 202 | 4.0 | 6.0 | 0.00 | 0.00 | 0.00 | 79 | 1017.7 |
| 20260902125016 | 71 | 202 | 4.0 | 7.0 | 0.00 | 0.00 | 0.00 | 80 | 1017.7 |
| 20260902124016 | 71 | 202 | 4.0 | 6.0 | 0.00 | 0.00 | 0.00 | 80 | 1017.6 |
| 20260902123016 | 71 | 202 | 4.0 | 6.0 | 0.00 | 0.00 | 0.00 | 80 | 1017.6 |
| 20260902122016 | 71 | 202 | 4.0 | 6.0 | 0.00 | 0.00 | 0.00 | 79 | 1017.6 |
| 20260902121016 | 71 | 202 | 5.0 | 7.0 | 0.00 | 0.00 | 0.00 | 79 | 1017.5 |
| 20260902120016 | 71 | 202 | 4.0 | 6.0 | 0.00 | 0.00 | 0.00 | 78 | 1017.7 |
| 20260902115016 | 71 | 202 | 5.0 | 6.0 | 0.00 | 0.00 | 0.00 | 78 | 1017.8 |
| 20260902114016 | 71 | 202 | 5.0 | 7.0 | 0.00 | 0.00 | 0.00 | 78 | 1017.9 |
| 20260902113016 | 72 | 180 | 4.0 | 6.0 | 0.00 | 0.00 | 0.00 | 77 | 1017.9 |
| 20260902112016 | 72 | 180 | 5.0 | 7.0 | 0.00 | 0.00 | 0.00 | 77 | 1017.9 |
| 20260902111016 | 72 | 180 | 4.0 | 9.0 | 0.00 | 0.00 | 0.00 | 77 | 1017.9 |
| 20260902110016 | 72 | 180 | 4.0 | 7.0 | 0.00 | 0.00 | 0.00 | 76 | 1017.9 |
| 20260902105016 | 72 | 180 | 5.0 | 7.0 | 0.00 | 0.00 | 0.00 | 76 | 1017.9 |
| 20260902104016 | 72 | 180 | 3.0 | 5.0 | 0.00 | 0.00 | 0.00 | 76 | 1017.9 |
| 20260902103116 | 72 | 157 | 2.0 | 4.0 | 0.00 | 0.00 | 0.00 | 76 | 1018.0 |
| 20260902102016 | 72 | 157 | 2.0 | 4.0 | 0.00 | 0.00 | 0.00 | 76 | 1017.9 |
| 20260902101016 | 72 | 157 | 2.0 | 4.0 | 0.00 | 0.00 | 0.00 | 76 | 1017.9 |
| 20260902100016 | 72 | 157 | 2.0 | 4.0 | 0.00 | 0.00 | 0.00 | 76 | 1018.1 |
| 20260902095016 | 72 | 157 | 2.0 | 4.0 | 0.00 | 0.00 | 0.00 | 75 | 1018.0 |
| 20260902094016 | 72 | 157 | 2.0 | 3.0 | 0.00 | 0.00 | 0.00 | 74 | 1018.2 |
| 20260902093016 | 73 | 180 | 3.0 | 4.0 | 0.00 | 0.00 | 0.00 | 74 | 1018.2 |
| 20260902092016 | 73 | 180 | 2.0 | 4.0 | 0.00 | 0.00 | 0.00 | 73 | 1017.9 |
| 20260902091016 | 73 | 180 | 2.0 | 5.0 | 0.00 | 0.00 | 0.00 | 73 | 1018.0 |
| 20260902090016 | 74 | 180 | 3.0 | 6.0 | 0.00 | 0.00 | 0.00 | 73 | 1018.1 |
| 20260902085016 | 74 | 180 | 3.0 | 6.0 | 0.00 | 0.00 | 0.00 | 72 | 1018.1 |
| 20260902084016 | 74 | 180 | 5.0 | 9.0 | 0.00 | 0.00 | 0.00 | 72 | 1018.2 |
| 20260902083016 | 74 | 180 | 4.0 | 7.0 | 0.00 | 0.00 | 0.00 | 72 | 1018.3 |
| 20260902082016 | 74 | 180 | 3.0 | 5.0 | 0.00 | 0.00 | 0.00 | 71 | 1018.3 |
| 20260902081016 | 75 | 180 | 3.0 | 5.0 | 0.00 | 0.00 | 0.00 | 71 | 1018.2 |
| 20260902080016 | 75 | 180 | 3.0 | 6.0 | 0.00 | 0.00 | 0.00 | 70 | 1018.2 |
| 20260902075016 | 76 | 180 | 4.0 | 6.0 | 0.00 | 0.00 | 0.00 | 69 | 1018.3 |
| 20260902074016 | 76 | 180 | 4.0 | 6.0 | 0.00 | 0.00 | 0.00 | 68 | 1018.3 |
| 20260902073016 | 76 | 157 | 5.0 | 9.0 | 0.00 | 0.00 | 0.00 | 68 | 1018.3 |
| 20260902072016 | 76 | 157 | 4.0 | 9.0 | 0.00 | 0.00 | 0.00 | 68 | 1018.5 |
| 20260902071016 | 77 | 157 | 5.0 | 9.0 | 0.00 | 0.00 | 0.00 | 67 | 1018.2 |
| 20260902070117 | 77 | 157 | 3.0 | 7.0 | 0.00 | 0.00 | 0.00 | 67 | 1018.2 |
| 20260902065021 | 76 | 180 | 3.0 | 7.0 | 0.00 | 0.00 | 0.00 | 66 | 1018.3 |
| 20260902064116 | 77 | 157 | 3.0 | 5.0 | 0.00 | 0.00 | 0.00 | 64 | 1018.2 |
| 20260902063016 | 77 | 180 | 3.0 | 7.0 | 0.00 | 0.00 | 0.00 | 64 | 1018.1 |
| 20260902062016 | 77 | 157 | 3.0 | 5.0 | 0.00 | 0.00 | 0.00 | 64 | 1018.0 |
| 20260902061016 | 77 | 157 | 3.0 | 5.0 | 0.00 | 0.00 | 0.00 | 64 | 1018.0 |
| 20260902060016 | 77 | 135 | 3.0 | 6.0 | 0.00 | 0.00 | 0.00 | 63 | 1018.0 |
| 20260902055016 | 77 | 157 | 2.0 | 4.0 | 0.00 | 0.00 | 0.00 | 63 | 1018.0 |
| 20260902054016 | 78 | 135 | 3.0 | 5.0 | 0.00 | 0.00 | 0.00 | 62 | 1017.9 |
| 20260902053016 | 78 | 135 | 2.0 | 5.0 | 0.00 | 0.00 | 0.00 | 61 | 1017.9 |
| 20260902052016 | 78 | 157 | 3.0 | 5.0 | 0.00 | 0.00 | 0.00 | 60 | 1017.9 |
| 20260902051016 | 78 | 135 | 3.0 | 7.0 | 0.00 | 0.00 | 0.00 | 59 | 1018.0 |
| 20260902050016 | 79 | 157 | 3.0 | 5.0 | 0.00 | 0.00 | 0.00 | 58 | 1018.1 |
| 20260902045015 | 78 | 135 | 2.0 | 3.0 | 0.00 | 0.00 | 0.00 | 57 | 1017.9 |
| 20260902043016 | 78 | 135 | 2.0 | 3.0 | 0.00 | 0.00 | 0.00 | 56 | 1017.8 |
| 20260902042016 | 78 | 157 | 2.0 | 3.0 | 0.00 | 0.00 | 0.00 | 56 | 1017.7 |
| 20260902041016 | 78 | 157 | 1.0 | 3.0 | 0.00 | 0.00 | 0.00 | 56 | 1017.6 |
| 20260902040016 | 79 | 157 | 1.0 | 2.0 | 0.00 | 0.00 | 0.00 | 56 | 1017.5 |
| 20260902035016 | 79 | 157 | 1.0 | 2.0 | 0.00 | 0.00 | 0.00 | 56 | 1017.4 |
| 20260902034016 | 79 | 135 | 1.0 | 2.0 | 0.00 | 0.00 | 0.00 | 55 | 1017.4 |
| 20260902033016 | 79 | 157 | 1.0 | 3.0 | 0.00 | 0.00 | 0.00 | 55 | 1017.3 |
| 20260902032016 | 80 | 157 | 1.0 | 2.0 | 0.00 | 0.00 | 0.00 | 54 | 1017.1 |
| 20260902031016 | 80 | 157 | 1.0 | 2.0 | 0.00 | 0.00 | 0.00 | 54 | 1017.1 |
| 20260902030016 | 80 | 135 | 1.0 | 3.0 | 0.00 | 0.00 | 0.00 | 54 | 1016.9 |
| 20260902025016 | 81 | 135 | 1.0 | 2.0 | 0.00 | 0.00 | 0.00 | 53 | 1016.7 |
| 20260902024016 | 81 | 157 | 2.0 | 4.0 | 0.00 | 0.00 | 0.00 | 52 | 1016.6 |
| 20260902023016 | 81 | 157 | 1.0 | 3.0 | 0.00 | 0.00 | 0.00 | 51 | 1016.4 |
| 20260902022016 | 82 | 135 | 2.0 | 2.0 | 0.00 | 0.00 | 0.00 | 50 | 1016.1 |
| 20260902021016 | 82 | 135 | 1.0 | 3.0 | 0.00 | 0.00 | 0.00 | 50 | 1015.8 |
| 20260902020016 | 83 | 157 | 2.0 | 4.0 | 0.00 | 0.00 | 0.00 | 48 | 1015.8 |
| 20260902015118 | 83 | 157 | 2.0 | 4.0 | 0.00 | 0.00 | 0.00 | 48 | 1015.7 |
| 20260902014016 | 84 | 135 | 2.0 | 4.0 | 0.00 | 0.00 | 0.00 | 47 | 1015.6 |
| 20260902013016 | 85 | 135 | 2.0 | 3.0 | 0.00 | 0.00 | 0.00 | 46 | 1015.3 |
| 20260902012016 | 85 | 157 | 2.0 | 4.0 | 0.00 | 0.00 | 0.00 | 45 | 1015.4 |
| 20260902011016 | 86 | 157 | 2.0 | 4.0 | 0.00 | 0.00 | 0.00 | 44 | 1015.3 |
| 20260902010016 | 87 | 157 | 2.0 | 4.0 | 0.00 | 0.00 | 0.00 | 43 | 1015.4 |
| 20260902005016 | 88 | 157 | 2.0 | 4.0 | 0.00 | 0.00 | 0.00 | 42 | 1015.2 |
| 20260902004018 | 89 | 180 | 3.0 | 6.0 | 0.00 | 0.00 | 0.00 | 40 | 1015.4 |
| 20260902003016 | 90 | 157 | 4.0 | 6.0 | 0.00 | 0.00 | 0.00 | 40 | 1015.3 |
| 20260902002016 | 91 | 135 | 4.0 | 9.0 | 0.00 | 0.00 | 0.00 | 38 | 1015.5 |
| 20260902001016 | 92 | 135 | 5.0 | 10.0 | 0.00 | 0.00 | 0.00 | 38 | 1015.4 |
| 20260901235016 | 93 | 135 | 6.0 | 11.0 | 0.00 | 0.00 | 0.00 | 36 | 1015.5 |
| 20260901234016 | 93 | 112 | 5.0 | 10.0 | 0.00 | 0.00 | 0.00 | 35 | 1015.5 |
| 20260901232116 | 94 | 112 | 6.0 | 11.0 | 0.00 | 0.00 | 0.00 | 35 | 1015.7 |
| 20260901231017 | 93 | 112 | 3.0 | 7.0 | 0.00 | 0.00 | 0.00 | 35 | 1015.6 |
| 20260901230018 | 94 | 112 | 6.0 | 10.0 | 0.00 | 0.00 | 0.00 | 35 | 1015.7 |
| 20260901224016 | 94 | 112 | 6.0 | 16.0 | 0.00 | 0.00 | 0.00 | 36 | 1015.5 |
| 20260901223018 | 94 | 135 | 4.0 | 9.0 | 0.00 | 0.00 | 0.00 | 38 | 1015.5 |
| 20260901222017 | 91 | 90 | 5.0 | 11.0 | 0.00 | 0.00 | 0.00 | 39 | 1015.5 |
| 20260901221016 | 92 | 112 | 6.0 | 10.0 | 0.00 | 0.00 | 0.00 | 38 | 1015.6 |
| 20260901220016 | 95 | 90 | 9.0 | 14.0 | 0.00 | 0.00 | 0.00 | 36 | 1015.7 |
| 20260901215016 | 95 | 67 | 9.0 | 12.0 | 0.00 | 0.00 | 0.00 | 35 | 1015.8 |
| 20260901214016 | 95 | 180 | 3.0 | 9.0 | 0.00 | 0.00 | 0.00 | 36 | 1015.8 |
| 20260901213016 | 95 | 90 | 8.0 | 14.0 | 0.00 | 0.00 | 0.00 | 35 | 1016.1 |
| 20260901212016 | 94 | 180 | 3.0 | 6.0 | 0.00 | 0.00 | 0.00 | 35 | 1016.1 |
| 20260901211016 | 94 | 135 | 3.0 | 7.0 | 0.00 | 0.00 | 0.00 | 34 | 1016.5 |
| 20260901210016 | 92 | 135 | 3.0 | 6.0 | 0.00 | 0.00 | 0.00 | 36 | 1016.5 |
| 20260901205017 | 94 | 157 | 2.0 | 6.0 | 0.00 | 0.00 | 0.00 | 34 | 1016.7 |
| 20260901204016 | 93 | 157 | 4.0 | 7.0 | 0.00 | 0.00 | 0.00 | 36 | 1016.8 |
| 20260901203016 | 94 | 135 | 3.0 | 7.0 | 0.00 | 0.00 | 0.00 | 35 | 1017.3 |
| 20260901202016 | 93 | 225 | 3.0 | 7.0 | 0.00 | 0.00 | 0.00 | 36 | 1017.1 |
| 20260901201016 | 92 | 67 | 2.0 | 5.0 | 0.00 | 0.00 | 0.00 | 37 | 1017.4 |
| 20260901200016 | 92 | 90 | 5.0 | 12.0 | 0.00 | 0.00 | 0.00 | 38 | 1017.3 |
| 20260901195016 | 92 | 135 | 4.0 | 7.0 | 0.00 | 0.00 | 0.00 | 38 | 1017.5 |
| 20260901194016 | 91 | 202 | 3.0 | 6.0 | 0.00 | 0.00 | 0.00 | 38 | 1017.6 |
| 20260901193016 | 91 | 315 | 2.0 | 4.0 | 0.00 | 0.00 | 0.00 | 38 | 1017.6 |
| 20260901192017 | 92 | 157 | 5.0 | 10.0 | 0.00 | 0.00 | 0.00 | 37 | 1017.9 |
| 20260901191016 | 93 | 90 | 7.0 | 12.0 | 0.00 | 0.00 | 0.00 | 37 | 1018.2 |
| 20260901190016 | 91 | 112 | 2.0 | 5.0 | 0.00 | 0.00 | 0.00 | 38 | 1018.1 |
| 20260901185016 | 93 | 135 | 5.0 | 10.0 | 0.00 | 0.00 | 0.00 | 38 | 1018.4 |
| 20260901184016 | 92 | 135 | 5.0 | 12.0 | 0.00 | 0.00 | 0.00 | 38 | 1018.5 |
| 20260901183016 | 92 | 135 | 5.0 | 10.0 | 0.00 | 0.00 | 0.00 | 39 | 1018.6 |
| 20260901182016 | 90 | 90 | 3.0 | 6.0 | 0.00 | 0.00 | 0.00 | 41 | 1018.7 |
| 20260901181016 | 90 | 90 | 5.0 | 9.0 | 0.00 | 0.00 | 0.00 | 40 | 1018.9 |
| 20260901180016 | 91 | 90 | 8.0 | 13.0 | 0.00 | 0.00 | 0.00 | 40 | 1018.9 |
| 20260901175017 | 91 | 90 | 7.0 | 14.0 | 0.00 | 0.00 | 0.00 | 42 | 1019.2 |
| 20260901174018 | 90 | 202 | 4.0 | 10.0 | 0.00 | 0.00 | 0.00 | 44 | 1019.3 |
| 20260901173016 | 91 | 180 | 6.0 | 14.0 | 0.00 | 0.00 | 0.00 | 42 | 1019.7 |
| 20260901172016 | 89 | 180 | 4.0 | 9.0 | 0.00 | 0.00 | 0.00 | 43 | 1019.7 |
| 20260901171016 | 89 | 180 | 5.0 | 11.0 | 0.00 | 0.00 | 0.00 | 43 | 1019.8 |
| 20260901170016 | 89 | 90 | 5.0 | 12.0 | 0.00 | 0.00 | 0.00 | 43 | 1019.8 |
| 20260901165117 | 88 | 135 | 6.0 | 11.0 | 0.00 | 0.00 | 0.00 | 42 | 1019.7 |
| 20260901164016 | 87 | 180 | 5.0 | 11.0 | 0.00 | 0.00 | 0.00 | 46 | 1019.6 |
| 20260901163017 | 86 | 180 | 5.0 | 10.0 | 0.00 | 0.00 | 0.00 | 47 | 1019.7 |
| 20260901162017 | 86 | 180 | 5.0 | 9.0 | 0.00 | 0.00 | 0.00 | 46 | 1019.5 |
| 20260901161016 | 86 | 202 | 8.0 | 13.0 | 0.00 | 0.00 | 0.00 | 47 | 1019.4 |
| 20260901160016 | 86 | 202 | 7.0 | 13.0 | 0.00 | 0.00 | 0.00 | 48 | 1019.5 |
| 20260901155016 | 85 | 202 | 6.0 | 12.0 | 0.00 | 0.00 | 0.00 | 47 | 1019.3 |
| 20260901154016 | 85 | 180 | 5.0 | 11.0 | 0.00 | 0.00 | 0.00 | 48 | 1019.3 |
| 20260901152017 | 83 | 180 | 6.0 | 11.0 | 0.00 | 0.00 | 0.00 | 51 | 1019.4 |
| 20260901151016 | 82 | 202 | 6.0 | 9.0 | 0.00 | 0.00 | 0.00 | 56 | 1019.3 |
| 20260901150016 | 81 | 202 | 5.0 | 9.0 | 0.00 | 0.00 | 0.00 | 58 | 1019.1 |
| 20260901145016 | 80 | 202 | 6.0 | 10.0 | 0.00 | 0.00 | 0.00 | 61 | 1019.2 |
| 20260901144016 | 80 | 202 | 5.0 | 10.0 | 0.00 | 0.00 | 0.00 | 65 | 1019.2 |
| 20260901143017 | 79 | 202 | 4.0 | 8.0 | 0.00 | 0.00 | 0.00 | 68 | 1019.1 |
| 20260901142016 | 77 | 202 | 5.0 | 10.0 | 0.00 | 0.00 | 0.00 | 74 | 1019.0 |
| 20260901141016 | 76 | 202 | 4.0 | 9.0 | 0.00 | 0.00 | 0.00 | 75 | 1019.2 |
| 20260901135016 | 74 | 157 | 3.0 | 6.0 | 0.00 | 0.00 | 0.00 | 83 | 1019.0 |